EW5024 Weather Reports


Display with metric or nautical units.
time (UTC)temp
F
wind
direction
speed
MPH
gust
MPH
rain 1hr
in
rain 24hr
in
rain mn
in
humidity
%
barometer
mb
20260901074549 71 10 5.0 10.0 0.00 0.00 0.00 64 1019.9
20260901073058 70 355 6.0 11.0 0.00 0.00 0.00 64 1020.0
20260901071548 69 336 8.0 11.0 0.00 0.00 0.00 66 1020.0
20260901064546 68 351 5.0 10.0 0.00 0.00 0.00 67 1020.0
20260901063046 68 35 4.0 8.0 0.00 0.00 0.00 67 1020.0
20260901061545 68 9 6.0 10.0 0.00 0.00 0.00 67 1020.1
20260901060042 68 355 7.0 12.0 0.00 0.00 0.00 67 1019.9
20260901054540 68 325 4.0 10.0 0.00 0.00 0.00 69 1019.8
20260901053043 67 341 7.0 11.0 0.00 0.00 0.00 69 1019.6
20260901051542 67 355 5.0 9.0 0.00 0.00 0.00 70 1019.6
20260901050034 67 355 5.0 10.0 0.00 0.00 0.00 70 1019.4
20260901044549 67 330 2.0 8.0 0.00 0.00 0.00 70 1019.3
20260901043029 67 355 2.0 6.0 0.00 0.00 0.00 69 1019.0
20260901041531 67 319 3.0 8.0 0.00 0.00 0.00 70 1018.8
20260901040025 68 14 4.0 9.0 0.00 0.00 0.00 69 1018.6
20260901034532 68 5 3.0 9.0 0.00 0.00 0.00 69 1018.6
20260901033039 68 329 5.0 9.0 0.00 0.00 0.00 68 1018.4
20260901031517 69 301 3.0 9.0 0.00 0.00 0.00 67 1018.4
20260901030025 69 9 3.0 8.0 0.00 0.00 0.00 66 1018.3
20260901024521 69 335 4.0 10.0 0.00 0.00 0.00 65 1018.2
20260901023010 70 5 4.0 11.0 0.00 0.00 0.00 64 1018.1
20260901021516 70 351 6.0 11.0 0.00 0.00 0.00 67 1018.0
20260901020006 70 343 6.0 12.0 0.00 0.00 0.00 67 1018.0
20260901014503 71 340 4.0 10.0 0.00 0.00 0.00 64 1018.0
20260901013001 71 355 4.0 11.0 0.00 0.00 0.00 64 1017.9
20260901011612 72 28 4.0 12.0 0.00 0.00 0.00 63 1017.7
20260901010112 72 14 6.0 11.0 0.00 0.00 0.00 62 1017.5
20260901004553 72 15 5.0 11.0 0.00 0.00 0.00 62 1017.4
20260901003051 73 26 3.0 9.0 0.00 0.00 0.00 61 1017.2
20260901001549 73 343 4.0 11.0 0.00 0.00 0.00 59 1017.1
20260901000045 74 335 3.0 16.0 0.00 0.00 0.00 58 1016.9
20260831234542 74 279 8.0 15.0 0.00 0.00 0.00 58 1016.7
20260831233039 74 309 7.0 15.0 0.00 0.00 0.00 59 1016.5
20260831231539 74 319 6.0 13.0 0.00 0.00 0.00 58 1016.3
20260831230035 75 9 4.0 9.0 0.00 0.00 0.00 58 1016.1
20260831224531 76 307 9.0 15.0 0.00 0.00 0.00 55 1015.9
20260831223036 76 342 5.0 15.0 0.00 0.00 0.00 56 1015.8
20260831221527 76 340 7.0 13.0 0.00 0.00 0.00 56 1015.7
20260831220027 76 335 8.0 15.0 0.00 0.00 0.00 54 1015.6
20260831214523 77 281 9.0 14.0 0.00 0.00 0.00 54 1015.4
20260831213022 77 328 11.0 18.0 0.00 0.00 0.00 53 1015.2
20260831211534 77 342 7.0 13.0 0.00 0.00 0.00 54 1014.9
20260831210021 77 324 5.0 11.0 0.00 0.00 0.00 57 1014.7
20260831204522 78 350 3.0 10.0 0.00 0.00 0.00 59 1014.5
20260831203029 80 5 3.0 6.0 0.00 0.00 0.00 56 1014.1
20260831201520 81 344 0.0 4.0 0.00 0.00 0.00 53 1013.4
20260831200025 82 277 3.0 11.0 0.00 0.00 0.00 51 1013.2
20260831194521 82 148 8.0 14.0 0.00 0.00 0.00 51 1013.0
20260831193017 83 194 7.0 17.0 0.00 0.00 0.00 49 1012.8
20260831191518 84 165 10.0 18.0 0.00 0.00 0.00 49 1012.4
20260831190020 84 181 10.0 20.0 0.00 0.00 0.00 49 1012.4
20260831184515 84 199 15.0 22.0 0.00 0.00 0.00 49 1011.7
20260831183015 84 200 15.0 27.0 0.00 0.00 0.00 48 1011.5
20260831181515 84 194 12.0 22.0 0.00 0.00 0.00 48 1011.7
20260831180015 84 194 13.0 28.0 0.00 0.00 0.00 48 1011.7
20260831174513 85 172 14.0 28.0 0.00 0.00 0.00 47 1011.3
20260831173012 85 192 15.0 27.0 0.00 0.00 0.00 47 1011.2
20260831171511 85 234 15.0 27.0 0.00 0.00 0.00 47 1011.2
20260831170012 85 201 15.0 26.0 0.00 0.00 0.00 46 1011.2
20260831164518 85 184 15.0 30.0 0.00 0.00 0.00 46 1011.4
20260831163008 85 190 15.0 28.0 0.00 0.00 0.00 46 1011.4
20260831161506 85 184 18.0 30.0 0.00 0.00 0.00 47 1011.7
20260831160006 85 203 15.0 24.0 0.00 0.00 0.00 47 1011.7
20260831154506 85 176 15.0 30.0 0.00 0.00 0.00 47 1011.6
20260831153006 86 198 11.0 25.0 0.00 0.00 0.00 46 1011.6
20260831151503 86 172 14.0 24.0 0.00 0.00 0.00 47 1011.8
20260831150002 86 228 15.0 30.0 0.00 0.00 0.00 46 1011.9
20260831144605 87 221 13.0 29.0 0.00 0.00 0.00 45 1011.9
20260831144501 87 213 13.0 29.0 0.00 0.00 0.00 45 1011.9
20260831143059 87 214 12.0 25.0 0.00 0.00 0.00 44 1012.0
20260831141559 88 188 10.0 24.0 0.00 0.00 0.00 43 1012.0
20260831140056 88 219 11.0 28.0 0.00 0.00 0.00 42 1012.1
20260831134600 88 209 13.0 23.0 0.00 0.00 0.00 43 1012.1
20260831133053 88 188 11.0 22.0 0.00 0.00 0.00 43 1012.4
20260831131554 88 189 14.0 23.0 0.00 0.00 0.00 41 1012.5
20260831130051 89 184 12.0 19.0 0.00 0.00 0.00 38 1012.7
20260831124551 89 204 8.0 14.0 0.00 0.00 0.00 37 1012.8
20260831123046 90 163 7.0 12.0 0.00 0.00 0.00 38 1013.0
20260831121545 90 152 7.0 14.0 0.00 0.00 0.00 38 1013.0
20260831120043 88 194 10.0 21.0 0.00 0.00 0.00 42 1013.2
20260831114539 87 261 1.0 6.0 0.00 0.00 0.00 46 1013.4
20260831113035 87 221 2.0 5.0 0.00 0.00 0.00 46 1013.6
20260831111532 87 285 3.0 4.0 0.00 0.00 0.00 45 1013.8
20260831110035 85 67 1.0 4.0 0.00 0.00 0.00 47 1014.1
20260831104532 84 346 2.0 4.0 0.00 0.00 0.00 49 1014.3
20260831103021 83 355 2.0 5.0 0.00 0.00 0.00 51 1014.5
20260831101524 82 97 2.0 6.0 0.00 0.00 0.00 54 1014.7
20260831100017 81 322 2.0 5.0 0.00 0.00 0.00 56 1015.0
20260831094510 80 315 2.0 4.0 0.00 0.00 0.00 57 1015.2
20260831093006 79 300 1.0 5.0 0.00 0.00 0.00 58 1015.4
20260831091507 78 296 2.0 5.0 0.00 0.00 0.00 60 1015.5
20260831090002 77 299 3.0 7.0 0.00 0.00 0.00 60 1015.8
20260831084608 77 322 2.0 4.0 0.00 0.00 0.00 62 1015.8
20260831083056 75 26 3.0 6.0 0.00 0.00 0.00 64 1016.0
20260831081601 74 360 3.0 6.0 0.00 0.00 0.00 65 1016.1
20260831080117 74 336 3.0 6.0 0.00 0.00 0.00 68 1016.0